K8JWL-13 Weather Reports


Display with metric or nautical units.
time (UTC)temp
F
wind
direction
speed
MPH
gust
MPH
rain 1hr
in
rain 24hr
in
rain mn
in
humidity
%
barometer
mb
20260906113856 63 21 2.0 0.0 186.71 0.00 0.00 85 1017.0
20260906112356 63 11 0.0 0.0 186.71 0.00 0.00 85 1017.0
20260906111944 63 11 0.0 0.0 186.71 0.00 0.00 85 1016.9
20260906111856 63 11 0.0 0.0 186.71 0.00 0.00 85 1016.9
20260906111357 63 11 0.0 0.0 186.71 0.00 0.00 85 1016.8
20260906110856 63 11 0.0 0.0 186.71 0.00 0.00 84 1016.9
20260906110356 63 11 0.0 0.0 186.71 0.00 0.00 84 1016.8
20260906104856 63 11 0.0 0.0 186.71 0.00 0.00 84 1016.8
20260906104356 63 11 0.0 0.0 186.71 0.00 0.00 84 1016.9
20260906103856 63 45 2.0 0.0 186.71 0.00 0.00 83 1016.8
20260906102856 63 4 2.0 0.0 186.71 0.00 0.00 83 1016.8
20260906102356 63 0 0.0 0.0 186.71 0.00 0.00 83 1016.7
20260906101856 63 0 0.0 0.0 186.71 0.00 0.00 83 1016.7
20260906101356 63 6 0.0 0.0 186.71 0.00 0.00 83 1016.7
20260906100856 64 25 2.0 0.0 186.71 0.00 0.00 82 1016.7
20260906100511 64 343 2.0 0.0 186.71 0.00 0.00 82 1016.7
20260906100356 64 343 2.0 0.0 186.71 0.00 0.00 82 1016.7
20260906094856 64 28 1.0 0.0 186.71 0.00 0.00 82 1016.7
20260906094356 64 353 3.0 0.0 186.71 0.00 0.00 82 1016.7
20260906093856 64 1 0.0 0.0 186.71 0.00 0.00 81 1016.6
20260906093356 64 339 0.0 0.0 186.71 0.00 0.00 81 1016.5
20260906092856 64 1 0.0 0.0 186.71 0.00 0.00 81 1016.5
20260906092016 65 343 2.0 0.0 186.71 0.00 0.00 81 1016.5
20260906091856 65 343 2.0 0.0 186.71 0.00 0.00 81 1016.5
20260906091356 65 27 3.0 0.0 186.71 0.00 0.00 81 1016.5
20260906090856 65 51 1.0 0.0 186.71 0.00 0.00 80 1016.5
20260906090356 65 349 3.0 0.0 186.71 0.00 0.00 80 1016.4
20260906083356 66 17 0.0 0.0 186.71 0.00 0.00 78 1016.4
20260906082856 66 356 0.0 0.0 186.71 0.00 0.00 78 1016.4
20260906082356 66 8 0.0 0.0 186.71 0.00 0.00 78 1016.4
20260906081856 66 7 0.0 0.0 186.71 0.00 0.00 77 1016.3
20260906081356 66 4 3.0 0.0 186.71 0.00 0.00 77 1016.3
20260906080856 67 25 0.0 0.0 186.71 0.00 0.00 77 1016.3
20260906075856 67 356 1.0 0.0 186.71 0.00 0.00 77 1016.2
20260906075356 67 10 2.0 0.0 186.71 0.00 0.00 76 1016.3
20260906074856 67 8 0.0 0.0 186.71 0.00 0.00 77 1016.3
20260906073356 68 10 1.0 0.0 186.71 0.00 0.00 76 1016.2
20260906073017 68 38 2.0 0.0 186.71 0.00 0.00 76 1016.2
20260906072856 68 38 2.0 0.0 186.71 0.00 0.00 76 1016.2
20260906072356 68 8 3.0 0.0 186.71 0.00 0.00 76 1016.1
20260906071856 68 10 2.0 0.0 186.71 0.00 0.00 76 1016.0
20260906071355 68 15 0.0 0.0 186.71 0.00 0.00 75 1015.9
20260906070856 68 14 2.0 0.0 186.71 0.00 0.00 75 1016.0
20260906070356 68 66 0.0 0.0 186.71 0.00 0.00 75 1016.0
20260906065855 68 332 3.0 0.0 186.71 0.00 0.00 75 1015.9
20260906065356 69 62 2.0 0.0 186.71 0.00 0.00 75 1015.9
20260906064856 69 39 1.0 0.0 186.71 0.00 0.00 74 1016.0
20260906062855 69 0 1.0 0.0 186.71 0.00 0.00 73 1016.2
20260906062355 69 14 2.0 0.0 186.71 0.00 0.00 72 1016.2
20260906061856 69 30 1.0 0.0 186.71 0.00 0.00 73 1016.1
20260906061355 69 24 2.0 0.0 186.71 0.00 0.00 73 1016.2
20260906060855 69 155 0.0 0.0 186.71 0.00 0.00 73 1016.1
20260906060356 69 345 1.0 0.0 186.71 0.00 0.00 73 1016.1
20260906055856 69 353 2.0 0.0 186.71 0.00 0.00 73 1016.1
20260906055355 69 163 1.0 0.0 186.71 0.00 0.00 73 1016.0
20260906055014 69 87 0.0 0.0 186.71 0.00 0.00 72 1016.0
20260906054858 69 87 0.0 0.0 186.71 0.00 0.00 72 1016.0
20260906054426 69 107 1.0 0.0 186.71 0.00 0.00 72 1015.9
20260906054355 69 107 1.0 0.0 186.71 0.00 0.00 72 1015.9
20260906053855 69 84 4.0 0.0 186.71 0.00 0.00 73 1015.8
20260906053016 69 48 3.0 0.0 186.71 0.00 0.00 74 1015.8
20260906052855 69 48 3.0 0.0 186.71 0.00 0.00 74 1015.8
20260906052355 69 38 1.0 0.0 186.71 0.00 0.00 76 1015.7
20260906051856 69 114 4.0 0.0 186.71 0.00 0.00 77 1015.7
20260906045944 69 20 5.0 0.0 186.71 0.00 0.00 79 1015.3
20260906045855 69 20 5.0 0.0 186.71 0.00 0.00 79 1015.3
20260906045355 70 83 0.0 0.0 186.71 0.00 0.00 79 1015.4
20260906044856 69 352 1.0 0.0 186.71 0.00 0.00 80 1015.4
20260906044504 70 48 0.0 0.0 186.71 0.00 0.00 80 1015.4
20260906044355 70 48 0.0 0.0 186.71 0.00 0.00 80 1015.4
20260906044017 70 27 2.0 0.0 186.71 0.00 0.00 79 1015.3
20260906043855 70 27 2.0 0.0 186.71 0.00 0.00 79 1015.3
20260906042939 70 13 2.0 0.0 186.71 0.00 1.22 79 1015.2
20260906042855 70 13 2.0 0.0 186.71 0.00 1.22 79 1015.2
20260906042355 70 45 2.0 0.0 186.71 0.00 1.22 80 1015.1
20260906041856 70 69 0.0 0.0 186.71 0.00 1.22 80 1015.2
20260906041455 70 69 0.0 0.0 186.71 0.00 1.22 80 1015.2
20260906041355 70 69 0.0 0.0 186.71 0.00 1.22 80 1015.2
20260906040855 70 300 0.0 0.0 186.71 0.00 1.22 80 1015.3
20260906040357 70 44 0.0 0.0 186.71 0.00 1.22 80 1015.3
20260906035856 70 14 0.0 0.0 186.71 0.00 1.22 80 1015.4
20260906035355 70 14 0.0 0.0 186.71 0.00 1.22 79 1015.4
20260906034856 70 14 0.0 0.0 186.71 0.00 1.22 79 1015.4
20260906034355 71 24 1.0 0.0 186.71 0.00 1.22 79 1015.3
20260906034009 71 4 0.0 0.0 186.71 0.00 1.22 79 1015.3
20260906033855 71 4 0.0 0.0 186.71 0.00 1.22 79 1015.3
20260906033356 71 4 0.0 0.0 186.71 0.00 1.22 79 1015.3
20260906032855 71 18 2.0 0.0 186.71 0.00 1.22 78 1015.3
20260906032355 71 352 1.0 0.0 186.71 0.00 1.22 78 1015.3
20260906031931 72 31 0.0 0.0 186.71 0.00 1.22 78 1015.3
20260906031355 72 31 0.0 0.0 186.71 0.00 1.22 78 1015.3
20260906030855 72 342 0.0 0.0 186.71 0.00 1.22 79 1015.2
20260906025355 72 23 2.0 0.0 186.71 0.00 1.22 80 1015.3
20260906024856 72 23 0.0 0.0 186.71 0.00 1.22 79 1015.3
20260906023356 73 11 2.0 0.0 186.71 0.00 1.22 79 1015.4
20260906022855 73 73 0.0 0.0 186.71 0.00 1.22 80 1015.2
20260906022355 73 87 0.0 0.0 186.71 0.00 1.22 80 1015.1
20260906021856 73 11 1.0 0.0 186.71 0.00 1.22 80 1015.1
20260906021355 74 41 5.0 0.0 186.71 0.00 1.22 80 1015.2
20260906020430 74 357 2.0 0.0 186.71 0.00 1.22 81 1015.2
20260906020356 74 357 2.0 0.0 186.71 0.00 1.22 81 1015.2
20260906015355 74 30 1.0 0.0 186.71 0.00 1.22 80 1015.0
20260906015137 74 53 1.0 0.0 186.71 0.00 1.22 79 1014.9
20260906014858 74 53 1.0 0.0 186.71 0.00 1.22 79 1014.9
20260906014855 74 53 1.0 0.0 186.71 0.00 1.22 79 1014.9
20260906014355 74 59 1.0 0.0 186.71 0.00 1.22 79 1014.9
20260906013856 75 52 3.0 0.0 186.71 0.00 1.22 78 1014.8
20260906012855 75 21 4.0 0.0 186.71 0.00 1.22 77 1014.6
20260906012004 75 25 3.0 0.0 186.71 0.00 1.22 79 1014.5
20260906011855 75 25 3.0 0.0 186.71 0.00 1.22 79 1014.5
20260906011355 75 21 3.0 0.0 186.71 0.00 1.22 80 1014.3
20260906010355 76 6 1.0 0.0 186.71 0.00 1.22 80 1014.3
20260906005357 76 21 6.0 0.0 186.71 0.00 1.22 80 1014.1
20260906004855 76 18 7.0 0.0 186.71 0.00 1.22 80 1014.1
20260906004355 77 8 5.0 0.0 186.71 0.00 1.22 79 1014.1
20260906004234 77 44 2.0 0.0 186.71 0.00 1.22 79 1014.0
20260906003855 77 44 2.0 0.0 186.71 0.00 1.22 79 1014.0
20260906003539 77 75 2.0 0.0 186.71 0.00 1.22 79 1014.1
20260906003355 77 75 2.0 0.0 186.71 0.00 1.22 79 1014.1
20260906002855 77 87 1.0 0.0 186.71 0.00 1.22 79 1014.2
20260906002355 77 13 0.0 0.0 186.71 0.00 1.22 78 1014.2
20260906001355 78 87 3.0 0.0 186.71 0.00 1.22 78 1014.1
20260906000855 78 6 4.0 0.0 186.71 0.00 1.22 78 1014.0
20260906000356 78 65 3.0 0.0 186.71 0.00 1.22 78 1014.1
20260905235855 79 10 1.0 0.0 186.71 0.00 1.22 78 1014.1
20260905235355 79 13 1.0 0.0 186.71 0.00 1.22 77 1014.1
20260905234855 79 312 1.0 0.0 186.71 0.00 1.22 76 1014.1
20260905233355 80 336 5.0 0.0 186.71 0.00 1.22 75 1014.0
20260905232858 80 359 0.0 0.0 186.71 0.00 1.22 75 1014.0
20260905232355 80 359 0.0 0.0 186.71 0.00 1.22 74 1014.0
20260905232305 80 359 0.0 0.0 186.71 0.00 1.22 73 1013.9
20260905231855 80 359 0.0 0.0 186.71 0.00 1.22 73 1013.9
20260905231356 80 359 0.0 0.0 186.71 0.00 1.22 72 1013.7
20260905230355 81 359 0.0 0.0 186.71 0.00 1.22 72 1013.5
20260905225855 81 359 0.0 0.0 186.71 0.00 1.22 74 1013.4
20260905225502 82 359 0.0 0.0 186.71 0.00 1.22 74 1013.1
20260905225355 82 359 0.0 0.0 186.71 0.00 1.22 73 1013.2
20260905224855 82 359 0.0 0.0 186.71 0.00 1.22 74 1013.1
20260905224355 81 359 0.0 0.0 186.71 0.00 1.22 74 1013.2
20260905223855 81 359 0.0 0.0 186.71 0.00 1.22 77 1013.1
20260905223357 81 359 0.0 0.0 186.71 0.00 1.22 77 1013.2
20260905222855 81 359 0.0 0.0 186.71 0.00 1.22 76 1013.1
20260905221855 81 359 0.0 0.0 186.71 0.00 1.22 72 1013.0
20260905220355 81 359 0.0 0.0 186.71 0.00 1.22 73 1013.2
20260905215929 81 359 0.0 0.0 186.71 0.00 1.22 73 1013.3
20260905215855 81 359 0.0 0.0 186.71 0.00 1.22 73 1013.3
20260905215355 81 359 0.0 0.0 186.71 0.00 1.22 72 1013.2
20260905214855 81 359 0.0 0.0 186.71 0.00 1.22 71 1013.2
20260905214355 81 359 0.0 0.0 186.71 0.00 1.22 71 1013.2
20260905213855 81 359 0.0 0.0 186.71 0.00 1.22 71 1013.3
20260905212857 81 359 0.0 0.0 186.71 0.00 1.22 69 1013.2
20260905212355 81 359 0.0 0.0 186.71 0.00 1.22 69 1013.2
20260905211855 81 359 0.0 0.0 186.71 0.00 1.22 69 1013.2
20260905211356 81 359 0.0 0.0 186.71 0.00 1.22 69 1013.2
20260905210855 81 359 0.0 0.0 186.71 0.00 1.22 69 1013.2
20260905210355 82 359 0.0 0.0 186.71 0.00 1.22 68 1013.3
20260905205855 82 359 0.0 0.0 186.71 0.00 1.22 68 1013.3
20260905205355 82 359 0.0 0.0 186.71 0.00 1.22 68 1013.3
20260905204855 82 359 0.0 0.0 186.71 0.00 1.22 67 1013.3
20260905204355 82 359 0.0 0.0 186.71 0.00 1.22 66 1013.4
20260905203856 83 359 0.0 0.0 186.71 0.00 1.22 66 1013.4
20260905203355 83 359 0.0 0.0 186.71 0.00 1.22 67 1013.5
20260905202855 83 359 0.0 0.0 186.71 0.00 1.22 67 1013.4
20260905202355 83 359 0.0 0.0 186.71 0.00 1.22 66 1013.4
20260905201855 83 359 0.0 0.0 186.71 0.00 1.22 65 1013.6
20260905201355 83 359 0.0 0.0 186.71 0.00 1.22 66 1013.6
20260905200855 83 359 0.0 0.0 186.71 0.00 1.22 66 1013.6
20260905200355 82 359 0.0 0.0 186.71 0.00 1.22 68 1013.7
20260905195855 82 359 0.0 0.0 186.71 0.00 1.22 66 1013.8
20260905195355 82 359 0.0 0.0 186.71 0.00 1.22 67 1013.8
20260905194855 82 359 0.0 0.0 186.71 0.00 1.22 67 1013.8
20260905194355 82 359 0.0 0.0 186.71 0.00 1.22 66 1013.9
20260905193856 82 359 0.0 0.0 186.71 0.00 1.22 66 1013.9
20260905193356 83 359 0.0 0.0 186.71 0.00 1.22 67 1014.0
20260905192855 82 359 0.0 0.0 186.71 0.00 1.22 68 1013.9
20260905192355 82 359 0.0 0.0 186.71 0.00 1.22 66 1014.0
20260905191855 82 359 0.0 0.0 186.71 0.00 1.22 68 1014.0
20260905191355 82 359 0.0 0.0 186.71 0.00 1.22 70 1014.1
20260905190855 81 359 0.0 0.0 186.71 0.00 1.22 70 1014.1
20260905190355 81 359 0.0 0.0 186.71 0.00 1.22 70 1014.2
20260905185855 81 359 0.0 0.0 186.71 0.00 1.22 70 1014.2
20260905185354 80 359 0.0 0.0 186.71 0.00 1.22 70 1014.4
20260905184355 81 359 0.0 0.0 186.71 0.00 1.22 69 1014.5
20260905183355 81 359 0.0 0.0 186.71 0.00 1.22 69 1014.6
20260905182854 81 359 0.0 0.0 186.71 0.00 1.22 69 1014.5
20260905182355 81 359 0.0 0.0 186.71 0.00 1.22 70 1014.5
20260905181856 81 359 0.0 0.0 186.71 0.00 1.22 70 1014.4
20260905181354 81 359 0.0 0.0 186.71 0.00 1.22 69 1014.4
20260905180854 81 359 0.0 0.0 186.71 0.00 1.22 70 1014.4
20260905180355 81 359 0.0 0.0 186.71 0.00 1.22 70 1014.4
20260905175854 81 359 0.0 0.0 186.71 0.00 1.22 70 1014.5
20260905175354 81 359 0.0 0.0 186.71 0.00 1.22 71 1014.5
20260905174855 80 359 0.0 0.0 186.71 0.00 1.22 72 1014.5
20260905174354 80 359 0.0 0.0 186.71 0.00 1.22 71 1014.5
20260905173854 80 359 0.0 0.0 186.71 0.00 1.22 71 1014.5
20260905173355 80 359 0.0 0.0 186.71 0.00 1.22 72 1014.5
20260905172854 79 359 0.0 0.0 186.71 0.00 1.22 72 1014.5
20260905172354 79 359 0.0 0.0 186.71 0.00 1.22 72 1014.6
20260905171855 79 359 0.0 0.0 186.71 0.00 1.22 72 1014.7
20260905171354 79 359 0.0 0.0 186.71 0.00 1.22 73 1014.7
20260905170854 79 359 0.0 0.0 186.71 0.00 1.22 73 1014.7
20260905170355 79 359 0.0 0.0 186.71 0.00 1.22 73 1014.7
20260905165854 79 359 0.0 0.0 186.71 0.00 1.22 72 1014.8
20260905165354 79 359 0.0 0.0 186.71 0.00 1.22 73 1014.7
20260905164855 78 359 0.0 0.0 186.71 0.00 1.22 72 1014.7
20260905164354 78 359 0.0 0.0 186.71 0.00 1.22 75 1014.7
20260905163854 78 359 0.0 0.0 186.71 0.00 1.22 75 1014.7
20260905163356 78 359 0.0 0.0 186.71 0.00 1.22 73 1014.7
20260905162854 77 359 0.0 0.0 186.71 0.00 1.22 75 1014.6
20260905162354 77 359 0.0 0.0 186.71 0.00 1.22 75 1014.6
20260905161855 77 359 0.0 0.0 186.71 0.00 1.22 76 1014.7
20260905161354 77 359 0.0 0.0 186.71 0.00 1.22 77 1014.8
20260905160854 76 359 0.0 0.0 186.71 0.00 1.22 78 1014.8
20260905160355 76 359 0.0 0.0 186.71 0.00 1.22 80 1014.7
20260905155854 76 359 0.0 0.0 186.71 0.00 1.22 81 1014.6
20260905155354 75 359 0.0 0.0 186.71 0.00 1.22 82 1014.7
20260905152357 74 233 1.0 0.0 186.71 0.00 1.22 89 1014.5
20260905150357 72 249 0.0 0.0 186.71 0.00 1.22 91 1014.4
20260905145855 71 249 0.0 0.0 186.71 0.00 1.22 91 1014.4
20260905144855 71 249 0.0 0.0 186.71 0.00 1.22 92 1014.3
20260905144355 71 249 0.0 0.0 186.71 0.00 1.22 92 1014.2
20260905143854 71 249 0.0 0.0 186.71 0.00 1.22 92 1014.3
20260905142356 70 249 0.0 0.0 186.71 0.00 1.22 92 1014.1
20260905140855 70 249 0.0 0.0 186.71 0.00 1.22 93 1013.9
20260905135854 70 249 0.0 0.0 186.71 0.00 1.22 93 1014.0
20260905134854 70 249 0.0 0.0 186.71 0.00 1.22 93 1014.1
20260905134148 69 249 0.0 0.0 186.71 0.00 1.22 93 1014.3
20260905133855 69 249 0.0 0.0 186.71 0.00 1.22 93 1014.3
20260905132355 69 249 0.0 0.0 186.71 0.00 1.22 93 1014.3
20260905131854 69 249 0.0 0.0 186.71 0.00 1.22 93 1014.4
20260905131354 69 249 0.0 0.0 186.71 0.00 1.22 93 1014.5
20260905131112 69 249 0.0 0.0 186.71 0.00 1.22 93 1014.4
20260905130857 69 249 0.0 0.0 186.71 0.00 1.22 93 1014.4
20260905125854 69 249 0.0 0.0 186.71 0.00 1.22 93 1014.3
20260905125354 69 249 0.0 0.0 186.71 0.00 1.22 93 1014.2
20260905124855 69 249 0.0 0.0 186.71 0.00 1.22 93 1014.1
20260905124356 69 249 0.0 0.0 186.71 0.00 1.22 93 1014.1
20260905122854 70 125 0.0 0.0 186.71 0.00 1.22 93 1014.5
20260905122354 69 125 0.0 0.0 186.71 0.00 1.22 93 1014.4
20260905121354 69 125 0.0 0.0 186.71 0.00 1.22 93 1014.7
20260905120854 69 294 0.0 0.0 186.71 0.00 1.22 93 1014.9
20260905120354 69 294 0.0 0.0 186.71 0.00 1.22 93 1014.9
20260905115854 69 294 0.0 0.0 186.71 0.00 1.22 93 1015.0
20260905114355 69 294 0.0 0.0 186.71 0.00 1.22 93 1014.9